Regional Weather Roundup
Issued by NWS

Home | Current Version | Previous Version | Graphics & Text | Print | Product List | Glossary Off
Versions: 1 2 3 4 5 6 7 8 9 10 11 12 13 14 15 16 17 18 19 20 21 22 23 24 25 26 27 28 29 30 31 32 33 34 35 36 37 38 39 40 41 42 43 44 45 46 47 48 49 50

000
ASUS43 KDMX 281707
RWRIA

WEATHER ROUNDUP FOR IOWA
NATIONAL WEATHER SERVICE DES MOINES IA
1200 PM CDT MON JUL 28 2014

NOTE: "FAIR" INDICATES FEW OR NO CLOUDS BELOW 12,000 FEET WITH NO
SIGNIFICANT WEATHER AND/OR OBSTRUCTIONS TO VISIBILITY.

* - THESE STATIONS ARE NOT NWS STATIONS...THUS NOT UNDER NWS
QUALITY CONTROL.  THEY ALSO DO NOT REPORT WEATHER SUCH
AS PRECIPITATION OR FOG.

IAZ001>003-012>014-020>022-031>034-043>046-281800-
   NORTHWEST IOWA

CITY           SKY/WX    TMP DP  RH WIND       PRES   REMARKS
CARROLL *      CLOUDY    70  55  60 NW3       30.24F
CHEROKEE *     CLOUDY    66  61  82 N6        30.27S
DENISON *      CLOUDY    66  61  82 N9        30.24S
LE MARS *      MOSUNNY   70  59  68 NE9G17    30.27S
ORANGE CITY *  PTSUNNY   66  57  72 NW6       30.27S
SHELDON *      MOSUNNY   70  59  68 N9        30.25S
SIOUX CITY     PTSUNNY   71  56  58 N9G18     30.26S
SPENCER        PTSUNNY   70  58  65 N7        30.25F
STORM LAKE *   PTSUNNY   66  63  88 VRB5      30.26F
$$

IAZ055>058-069>071-079>083-090>094-281800-
   SOUTHWEST IOWA

CITY           SKY/WX    TMP DP  RH WIND       PRES   REMARKS
ATLANTIC *     CLOUDY    68  61  77 NW6       30.24F
AUDUBON *      MOSUNNY   73  63  68 CALM      30.26S
CLARINDA *     CLOUDY    70  61  73 NW6G13    30.27S
COUNCIL BLFS * CLOUDY    68  61  77 NW6       30.26S
CRESTON *      PTSUNNY   70  55  60 VRB6      30.24S
HARLAN  *      CLOUDY    66  61  82 VRB5      30.29S
LAMONI         PTSUNNY   70  57  63 N6        30.23S
RED OAK *      CLOUDY    68  61  77 NW5       30.26S
SHENANDOAH *   CLOUDY    70  61  73 NW6       30.27S
$$

IAZ047>049-059>061-072>074-084-281800-
   CENTRAL IOWA

CITY           SKY/WX    TMP DP  RH WIND       PRES   REMARKS
AMES           CLOUDY    71  54  54 N6        30.22S
ANKENY *       PTSUNNY   72  54  53 VRB7      30.22S
CHARITON *     MOSUNNY   72  54  53 NE7       30.22S
DES MOINES     PTSUNNY   75  53  46 E6        30.22R
GRINNELL*      MOSUNNY   70  57  64 NW8       30.22S
KNOXVILLE *    MOSUNNY   70  52  52 N10       30.21S
MARSHALLTOWN   CLOUDY    69  56  62 N8        30.21S
PELLA *        MOSUNNY   73  57  56 N7        30.22F
PERRY *        CLOUDY    70  57  64 W3        30.24S
$$

IAZ004>006-015-016-023>025-035-036-281800-
   NORTH CENTRAL IOWA

CITY           SKY/WX    TMP DP  RH WIND       PRES   REMARKS
ALGONA *       CLOUDY    68  59  73 N7        30.24F
CLARION *      DRIZZLE   66  57  72 N6        30.23S
ESTHERVILLE    CLOUDY    66  57  72 N7        30.24F
FORT DODGE *   PTSUNNY   70  57  64 CALM      30.24S
MASON CITY     PTSUNNY   71  55  56 NW13      30.23S
FOREST CITY *  CLOUDY    70  55  60 N12       30.22F
IOWA FALLS *   CLOUDY    70  55  60 NW7       30.23S
$$

IAZ007>011-017>019-026>030-037>042-050>054-066-281800-
   NORTHEAST IOWA

CITY           SKY/WX    TMP DP  RH WIND       PRES   REMARKS
CEDAR RAPIDS   MOSUNNY   70  49  47 N12       30.18S
CHARLES CITY * MOSUNNY   72  55  56 NW9       30.20F
CLINTON *      SUNNY     68  50  52 N17       30.18S
DECORAH *      MOSUNNY   70  54  56 N8        30.18F
DUBUQUE        SUNNY     68  50  52 N16       30.17R
MONTICELLO *   SUNNY     72  52  49 NE7G14    30.17S
OELWEIN *      MOSUNNY   70  54  56 N9G16     30.20S
WATERLOO       PTSUNNY   70  54  56 N12G17    30.18F
$$

IAZ064-065-067-068-078-281800-
   EAST CENTRAL IOWA

CITY           SKY/WX    TMP DP  RH WIND       PRES   REMARKS
DAVENPORT      SUNNY     70  51  51 N16       30.17R
IOWA CITY      SUNNY     73  54  51 N14       30.19R
MT. PLEASANT * SUNNY     72  52  49 N15G22    30.18S
MUSCATINE *    MOSUNNY   72  50  46 N16G22    30.17S
QUAD CITIES    SUNNY     71  48  43 N12       30.15R
$$

IAZ062-063-075>077-085>089-095>099-281800-
   SOUTHEAST IOWA

CITY           SKY/WX    TMP DP  RH WIND       PRES   REMARKS
BURLINGTON     PTSUNNY   70  53  54 N12       30.16S
FAIRFIELD *    SUNNY     72  54  53 N12G18    30.19S
FORT MADISON * MOSUNNY   72  54  53 N14G20    30.17F
KEOKUK *       SUNNY     72  54  53 N9G16     30.16S
OSKALOOSA *      N/A     70  55  60 N12       30.21S
CENTERVILLE *  SUNNY     72  54  53 NE9       30.22S
OTTUMWA        SUNNY     72  54  53 N8        30.20R
WASHINGTON *   MOSUNNY   72  55  56 N12G18    30.18S
$$

ABBREVIATIONS USED IN REMARKS
   TC - TEMPERATURES IN CELSIUS
  WCI - WIND CHILL INDEX
   HX - HEAT INDEX
  VSB - VISIBILITY
$$




USA.gov is the U.S. government's official web portal to all federal, state and local government web resources and services.